Change the Weather History Date:

Monday, March 4, 2013

  Actual Average Record
Temperature  
Mean Temperature 40 °F 42 °F  
Max Temperature 51 °F 51 °F 66 °F (1968)
Min Temperature 28 °F 33 °F 6 °F (1955)
Degree Days  
Heating Degree Days 25 23  
Month to date heating degree days 74 93  
Since 1 July heating degree days 3513 3948  
Cooling Degree Days 0 0  
Month to date cooling degree days 0 0  
Year to date cooling degree days 0 0  
Moisture  
Dew Point 23 °F    
Average Humidity 59    
Maximum Humidity 85    
Minimum Humidity 32    
Precipitation  
Precipitation 0.00 in 0.04 in 0.44 in (1932)
Month to date precipitation T 0.14  
Year to date precipitation 1.58 2.00  
Snow  
Snow 0.00 in 0.00 in 4.30 in (1960)
Month to date snowfall 0.0 0.2  
Since 1 July snowfall 2.6 10.0  
Snow Depth 0.00 in    
Sea Level Pressure  
Sea Level Pressure 30.22 in    
Wind  
Wind Speed 4 mph (East)    
Max Wind Speed 14 mph    
Max Gust Speed 16 mph    
Visibility 10 miles    
Events      
T = Trace of Precipitation, MM = Missing Value Source: NWS Daily Summary

Daily Weather History Graph

Daily Weather History Graph

Search for Another Location

Airport or City:

Trip Planner

Search our weather history database for the weather conditions in past years. The results will help you decide how hot, cold, wet, or windy it might be!

Date:

Astronomy

Mar. 04, 2013 Rise Set
Actual Time 6:21 AM PST 5:38 PM PST
Civil Twilight 5:51 AM PST 6:09 PM PST
Nautical Twilight 5:16 AM PST 6:43 PM PST
Astronomical Twilight 4:41 AM PST 7:19 PM PST
Moon 12:50 AM PST (3/4) 10:09 AM PST (3/4)
Length of Visible Light 12h 18m
Length of Day
11h 17m
Waning Gibbous, 51% of the Moon is Illuminated
Mar 4
Waning Gibbous
Mar 4
Last Quarter
Mar 11
New
Mar 19
First Quarter
Mar 27
Full

Hourly Weather History & Observations

Time (PST) Temp. Windchill Dew Point Humidity Pressure Visibility Wind Dir Wind Speed Gust Speed Precip Events Conditions
12:56 AM 33.1 °F 28.7 °F 21.0 °F 61% 30.23 in 10.0 mi South 4.6 mph - N/A   Scattered Clouds
1:56 AM 32.0 °F - 21.0 °F 64% 30.24 in 10.0 mi Calm Calm - N/A   Clear
2:56 AM 30.9 °F - 21.0 °F 67% 30.26 in 9.0 mi Calm Calm - N/A   Clear
3:56 AM 30.0 °F - 21.0 °F 69% 30.27 in 10.0 mi Calm Calm - N/A   Clear
4:56 AM 28.9 °F - 21.9 °F 75% 30.28 in 10.0 mi Calm Calm - N/A   Clear
5:56 AM 30.0 °F - 23.0 °F 75% 30.30 in 10.0 mi Calm Calm - N/A   Clear
6:56 AM 28.9 °F - 24.1 °F 82% 30.32 in 10.0 mi Calm Calm - N/A   Clear
7:56 AM 32.0 °F - 25.0 °F 75% 30.33 in 10.0 mi Calm Calm - N/A   Clear
8:56 AM 36.0 °F 33.3 °F 27.0 °F 70% 30.34 in 10.0 mi ENE 3.5 mph - N/A   Clear
9:56 AM 39.2 °F 34.2 °F 28.4 °F 65% 30.29 in 10.0 mi NE 6.9 mph - N/A   Clear
10:56 AM 43.0 °F 38.8 °F 26.1 °F 51% 30.30 in 10.0 mi ENE 6.9 mph - N/A   Clear
11:56 AM 46.0 °F 42.5 °F 24.1 °F 42% 30.27 in 10.0 mi East 6.9 mph - N/A   Clear
12:56 PM 48.0 °F - 24.1 °F 39% 30.24 in 10.0 mi NE 4.6 mph - N/A   Clear
1:56 PM 50.0 °F - 24.1 °F 36% 30.21 in 10.0 mi Variable 3.5 mph - N/A   Clear
2:56 PM 50.0 °F - 25.0 °F 38% 30.18 in 10.0 mi NE 8.1 mph - N/A   Clear
3:56 PM 50.0 °F - 21.9 °F 33% 30.17 in 10.0 mi ENE 9.2 mph 16.1 mph N/A   Clear
4:56 PM 48.9 °F - 21.0 °F 33% 30.14 in 10.0 mi NE 8.1 mph - N/A   Clear
5:56 PM 46.0 °F 41.4 °F 21.0 °F 37% 30.13 in 10.0 mi ENE 9.2 mph - N/A   Clear
6:56 PM 43.0 °F 38.2 °F 23.0 °F 45% 30.12 in 10.0 mi East 8.1 mph - N/A   Clear
7:56 PM 37.9 °F 33.5 °F 21.0 °F 51% 30.13 in 10.0 mi SSE 5.8 mph - N/A   Clear
8:56 PM 37.9 °F 32.7 °F 23.0 °F 55% 30.12 in 10.0 mi SSW 6.9 mph - N/A   Clear
9:56 PM 34.0 °F 31.0 °F 21.9 °F 61% 30.12 in 10.0 mi SSE 3.5 mph - N/A   Clear
11:56 PM 34.0 °F - 21.0 °F 59% 30.09 in 10.0 mi Calm Calm - N/A   Clear